{"data":{"norad_id":58095,"intl_designator":"2023-160W","name":"STARLINK-30570","alt_names":[],"object_type":"PAYLOAD","status":"ACTIVE","operator":null,"country":"US","launch_date":"2023-10-18","launch_site_code":"AFETR","launch_vehicle":null,"mission":null,"orbit_class":"UNKNOWN","rcs_meters":null,"size_class":null,"mass_kg":null,"dimensions":null,"purposes":["comms"],"wikipedia_slug":null,"has_3d_model":false,"image_url":null,"decayed_at":null,"tle_current":{"epoch":"2026-05-24T23:27:46.624608Z","epoch_age_seconds":77823,"freshness":"FRESH","line1":"1 58095U 23160W   26144.97762297 -.00001008  00000+0 -27102-4 0  9991","line2":"2 58095  43.0057   6.9960 0001312 269.0413  91.0288 15.27566155144617","mean_motion":15.27566155,"eccentricity":0.0001312,"inclination_deg":43.0057,"raan_deg":6.996,"arg_perigee_deg":269.0413,"mean_anomaly_deg":91.0288,"bstar":-2.7102e-5,"rev_number":14461,"period_min":94.267603094414,"perigee_km":482.19036020849,"apogee_km":483.99074631847,"semimajor_km":6861.2275532635,"source":"CELESTRAK","updated_at":"2026-05-25T13:38:18.525384Z"}}}